Weather History for Natchitoches, LA

Change the Weather History Date:

Wednesday, January 30, 2013

  Actual Average Record
Temperature  
Mean Temperature 44 °F -  
Max Temperature 55 °F 60 °F 91 °F (2002)
Min Temperature 33 °F 39 °F 13 °F (1966)
Degree Days  
Heating Degree Days 20    
Moisture  
Dew Point 38 °F    
Average Humidity 67    
Maximum Humidity 97    
Minimum Humidity 43    
Precipitation  
Precipitation 0.03 in - - ()
Sea Level Pressure  
Sea Level Pressure 29.91 in    
Wind  
Wind Speed 9 mph (WNW)    
Max Wind Speed 23 mph    
Max Gust Speed 41 mph    
Visibility 10 miles    
Events Rain    
Averages and records for this station are not official NWS values.
T = Trace of Precipitation, MM = Missing Value Source: NWS Daily Summary

Daily Weather History Graph

Daily Weather History Graph

Search for Another Location

Airport:

Trip Planner

Search our weather history database for the weather conditions in past years. The results will help you decide how hot, cold, wet, or windy it might be!

Date:

Astronomy

Jan. 30, 2013 Rise Set
Actual Time 7:06 AM CST 5:45 PM CST
Civil Twilight 6:40 AM CST 6:10 PM CST
Nautical Twilight 6:11 AM CST 6:40 PM CST
Astronomical Twilight 5:42 AM CST 7:08 PM CST
Moon 9:25 PM CST (1/30) 8:51 AM CST (1/30)
Length of Visible Light 11h 29m
Length of Day
10h 38m
Waning Gibbous, 87% of the Moon is Illuminated
Jan 30
Waning Gibbous
Feb 3
Last Quarter
Feb 10
New
Feb 17
First Quarter
Feb 25
Full

Hourly Weather History & Observations

Time (CST) Temp. Windchill Dew Point Humidity Pressure Visibility Wind Dir Wind Speed Gust Speed Precip Events Conditions
12:15 AM 55.4 °F - 53.4 °F 93% 29.72 in 10.0 mi NW 9.2 mph - N/A   Drizzle
12:35 AM 55.2 °F - 52.9 °F 92% 29.73 in 10.0 mi WNW 6.9 mph - N/A   Light Drizzle
12:55 AM 55.0 °F - 53.6 °F 95% 29.72 in 7.0 mi WNW 3.5 mph - 0.02 in Rain Rain
1:15 AM 54.9 °F - 54.0 °F 97% 29.72 in 10.0 mi West 4.6 mph - 0.01 in Rain Light Rain
1:55 AM 54.7 °F - 53.6 °F 96% 29.72 in 10.0 mi Calm Calm - 0.01 in   Overcast
2:15 AM 54.5 °F - 53.8 °F 97% 29.73 in 10.0 mi South 6.9 mph - N/A   Overcast
2:35 AM 54.9 °F - 54.0 °F 97% 29.72 in 10.0 mi SSW 3.5 mph - N/A   Overcast
2:55 AM 54.7 °F - 54.0 °F 97% 29.72 in 10.0 mi Calm Calm - N/A   Overcast
3:15 AM 54.9 °F - 54.0 °F 97% 29.72 in 10.0 mi SSW 3.5 mph - N/A   Overcast
3:35 AM 54.9 °F - 54.0 °F 97% 29.73 in 10.0 mi SW 4.6 mph - N/A   Overcast
3:55 AM 54.9 °F - 53.8 °F 96% 29.71 in 10.0 mi Calm Calm - N/A   Overcast
4:15 AM 54.9 °F - 53.8 °F 96% 29.71 in 10.0 mi West 4.6 mph - N/A   Overcast
4:35 AM 54.9 °F - 52.9 °F 93% 29.70 in 10.0 mi SW 3.5 mph - N/A   Overcast
4:55 AM 55.0 °F - 52.3 °F 91% 29.70 in 10.0 mi WSW 4.6 mph - N/A   Overcast
5:15 AM 55.0 °F - 50.5 °F 85% 29.71 in 10.0 mi WSW 4.6 mph - N/A   Overcast
5:35 AM 54.7 °F - 49.6 °F 83% 29.71 in 10.0 mi West 6.9 mph - N/A   Overcast
5:55 AM 54.5 °F - 46.6 °F 75% 29.72 in 10.0 mi West 10.4 mph 17.3 mph N/A   Overcast
6:15 AM 54.0 °F - 45.9 °F 74% 29.73 in 10.0 mi West 8.1 mph - N/A   Overcast
6:35 AM 53.6 °F - 45.0 °F 73% 29.73 in 10.0 mi West 12.7 mph 17.3 mph N/A   Overcast
6:55 AM 53.6 °F - 42.3 °F 65% 29.74 in 10.0 mi West 8.1 mph - N/A   Overcast
7:15 AM 53.6 °F - 40.8 °F 62% 29.76 in 10.0 mi West 9.2 mph - N/A   Overcast
7:35 AM 53.6 °F - 39.7 °F 59% 29.76 in 10.0 mi West 8.1 mph - N/A   Overcast
7:55 AM 53.2 °F - 38.8 °F 58% 29.77 in 10.0 mi West 9.2 mph - N/A   Overcast
8:15 AM 53.1 °F - 38.5 °F 58% 29.78 in 10.0 mi West 8.1 mph - N/A   Overcast
8:35 AM 53.1 °F - 36.9 °F 54% 29.80 in 10.0 mi WSW 8.1 mph - N/A   Overcast
8:55 AM 53.2 °F - 34.9 °F 50% 29.80 in 10.0 mi West 11.5 mph 17.3 mph N/A   Overcast
9:15 AM 53.1 °F - 34.3 °F 49% 29.80 in 10.0 mi West 11.5 mph - N/A   Overcast
9:35 AM 52.7 °F - 33.1 °F 47% 29.83 in 10.0 mi West 13.8 mph 20.7 mph N/A   Overcast
9:55 AM 52.2 °F - 32.9 °F 48% 29.83 in 10.0 mi WNW 19.6 mph 34.5 mph N/A   Overcast
10:15 AM 52.0 °F - 34.2 °F 51% 29.85 in 10.0 mi West 15.0 mph 26.5 mph N/A   Overcast
10:35 AM 52.5 °F - 36.1 °F 54% 29.85 in 10.0 mi West 17.3 mph 27.6 mph N/A   Mostly Cloudy
10:55 AM 52.0 °F - 36.3 °F 55% 29.87 in 10.0 mi WNW 19.6 mph 29.9 mph N/A   Mostly Cloudy
11:15 AM 53.1 °F - 36.3 °F 53% 29.88 in 10.0 mi WNW 23.0 mph 35.7 mph N/A   Mostly Cloudy
11:35 AM 54.0 °F - 37.4 °F 54% 29.88 in 10.0 mi WNW 23.0 mph 29.9 mph N/A   Mostly Cloudy
11:55 AM 52.5 °F - 38.1 °F 58% 29.89 in 10.0 mi WNW 19.6 mph 31.1 mph N/A   Mostly Cloudy
12:15 PM 50.0 °F - 36.0 °F 59% 29.91 in 10.0 mi WNW 19.6 mph 28.8 mph N/A   Overcast
12:35 PM 50.7 °F - 36.0 °F 57% 29.91 in 10.0 mi WNW 20.7 mph 28.8 mph N/A   Overcast
12:55 PM 48.6 °F - 32.2 °F 53% 29.93 in 10.0 mi WNW 23.0 mph 41.4 mph N/A   Overcast
1:15 PM 51.1 °F - 34.2 °F 52% 29.94 in 10.0 mi WNW 23.0 mph 32.2 mph N/A   Mostly Cloudy
1:35 PM 51.1 °F - 33.8 °F 52% 29.94 in 10.0 mi WNW 23.0 mph 33.4 mph N/A   Mostly Cloudy
1:55 PM 49.8 °F - 33.8 °F 54% 29.95 in 10.0 mi NW 23.0 mph 38.0 mph N/A   Overcast
2:15 PM 49.5 °F - 32.0 °F 51% 29.96 in 10.0 mi WNW 19.6 mph 35.7 mph N/A   Mostly Cloudy
2:35 PM 50.2 °F - 31.6 °F 49% 29.98 in 10.0 mi NW 17.3 mph 33.4 mph N/A   Mostly Cloudy
2:55 PM 50.2 °F - 31.5 °F 49% 29.98 in 10.0 mi NNW 18.4 mph 24.2 mph N/A   Mostly Cloudy
3:15 PM 49.8 °F - 30.4 °F 47% 29.99 in 10.0 mi NW 17.3 mph 24.2 mph N/A   Scattered Clouds
3:35 PM 50.7 °F - 30.0 °F 45% 30.00 in 10.0 mi NW 15.0 mph 27.6 mph N/A   Clear
3:55 PM 50.4 °F - 30.6 °F 47% 30.01 in 10.0 mi NW 15.0 mph 19.6 mph N/A   Scattered Clouds
4:15 PM 51.3 °F - 29.7 °F 44% 30.02 in 10.0 mi NW 18.4 mph 27.6 mph N/A   Clear
4:35 PM 50.9 °F - 30.0 °F 45% 30.02 in 10.0 mi WNW 16.1 mph 23.0 mph N/A   Scattered Clouds
4:55 PM 50.7 °F - 30.6 °F 46% 30.03 in 10.0 mi WNW 18.4 mph - N/A   Scattered Clouds
5:15 PM 50.0 °F - 28.4 °F 43% 30.03 in 10.0 mi NW 18.4 mph 28.8 mph N/A   Scattered Clouds
5:35 PM 48.6 °F - 28.2 °F 45% 30.05 in 10.0 mi NW 13.8 mph 23.0 mph N/A   Clear
5:55 PM 46.9 °F - 28.9 °F 50% 30.06 in 10.0 mi WNW 10.4 mph 16.1 mph N/A   Clear
6:15 PM 45.9 °F 41.2 °F 29.3 °F 52% 30.08 in 10.0 mi NW 9.2 mph - N/A   Clear
6:35 PM 45.7 °F 41.5 °F 29.3 °F 53% 30.10 in 10.0 mi WNW 8.1 mph - N/A   Clear
6:55 PM 44.8 °F 39.9 °F 29.5 °F 55% 30.11 in 10.0 mi WNW 9.2 mph - N/A   Clear
7:15 PM 44.4 °F 40.5 °F 29.8 °F 57% 30.12 in 10.0 mi WNW 6.9 mph - N/A   Clear
7:35 PM 43.7 °F 39.7 °F 29.5 °F 57% 30.12 in 10.0 mi WNW 6.9 mph - N/A   Clear
7:55 PM 42.8 °F 39.3 °F 29.7 °F 60% 30.12 in 10.0 mi NW 5.8 mph - N/A   Clear
8:15 PM 42.3 °F 37.9 °F 29.8 °F 61% 30.11 in 10.0 mi NW 6.9 mph - N/A   Clear
8:35 PM 42.3 °F 38.6 °F 29.7 °F 61% 30.12 in 10.0 mi WNW 5.8 mph - N/A   Clear
8:55 PM 41.4 °F - 30.6 °F 65% 30.13 in 10.0 mi Calm Calm - N/A   Clear
9:15 PM 38.3 °F 35.9 °F 32.0 °F 78% 30.14 in 10.0 mi WSW 3.5 mph - N/A   Clear
9:35 PM 37.0 °F 34.5 °F 32.0 °F 82% 30.14 in 10.0 mi SW 3.5 mph - N/A   Clear
9:55 PM 37.4 °F 34.9 °F 31.5 °F 79% 30.16 in 10.0 mi SW 3.5 mph - N/A   Clear
10:15 PM 36.3 °F 33.7 °F 30.9 °F 81% 30.16 in 10.0 mi West 3.5 mph - N/A   Clear
10:35 PM 34.9 °F - 32.0 °F 89% 30.17 in 10.0 mi Calm Calm - N/A   Clear
10:55 PM 35.1 °F - 31.1 °F 85% 30.18 in 10.0 mi Calm Calm - N/A   Clear
11:15 PM 34.2 °F - 31.8 °F 91% 30.18 in 10.0 mi Calm Calm - N/A   Clear
11:35 PM 34.7 °F - 31.1 °F 87% 30.18 in 10.0 mi Calm Calm - N/A   Clear
11:55 PM 33.8 °F - 32.2 °F 94% 30.18 in 10.0 mi Calm Calm - N/A   Clear